Volver al catálogo

FREGAT DEB

LostUNKNOWN
NORAD 46257·DEBRIS·🇷🇺 Russia

Lanzado Jul 18, 2011 desde Baikonur Cosmodrome

Loading…

Próximos Pases (próximas 24 horas)

TLE

ObsoletoSource: Space-Track

Época: Aug 28, 2020, 07:12 UTC

1 46257U 11037KT  20241.30045476 -.00008515  00000-0 -11714+0 0  9998
2 46257  51.9814 247.6278 1899603 139.3785 236.5480  9.69224664   772

Sigue FREGAT DEB en tiempo real con AllMySat

Download on the App Store